Mornington Island Airport Observation History
Time Wind Speed Temp Pressure Rel. Hum Rain
29/06:00am S 4-6 kts 19.7°c 1016.1 hPa 64% 0.0mm
29/05:30am S 5-7 kts 19.9°c 1016.2 hPa 68% 0.0mm
29/05:00am S 3-5 kts 19.9°c 1016.2 hPa 78% 0.0mm
29/04:30am S 3-5 kts 18.8°c 1016.2 hPa 68% 0.0mm
29/04:00am SSW 3-5 kts 18.3°c 1016.4 hPa 74% 0.0mm
29/03:30am SSE 3-4 kts 17.0°c 1016.5 hPa 78% 0.0mm
29/03:00am SSE 2-4 kts 17.4°c 1016.6 hPa 78% 0.0mm
29/02:30am SSE 4-5 kts 16.8°c 1016.6 hPa 78% 0.0mm
29/02:00am CALM 0 kts 17.1°c 1016.7 hPa 84% 0.0mm
29/01:30am CALM 0 kts 17.8°c 1016.8 hPa 81% 0.0mm
29/01:00am CALM 0 kts 17.9°c 1017.0 hPa 74% 0.0mm
29/12:30am CALM 0 kts 18.4°c 1017.1 hPa 74% 0.0mm
29/12:00am CALM 0 kts 18.7°c 1017.3 hPa 70% 0.0mm
Time Wind Speed Temp Pressure Rel. Hum Rain
28/11:30pm NE 4-5 kts 19.0°c 1017.3 hPa 69% 0.0mm
28/11:00pm NE 4-5 kts 19.3°c 1017.5 hPa 70% 0.0mm
28/10:30pm ENE 4-6 kts 19.4°c 1017.6 hPa 72% 0.0mm
28/10:00pm ENE 4-5 kts 19.3°c 1017.5 hPa 75% 0.0mm
28/09:30pm ENE 4-5 kts 19.4°c 1017.6 hPa 76% 0.0mm
28/09:00pm E 4-5 kts 19.4°c 1017.5 hPa 75% 0.0mm
28/08:30pm E 4 kts 20.0°c 1017.4 hPa 70% 0.0mm
28/08:00pm E 3-4 kts 20.7°c 1017.3 hPa 67% 0.0mm
28/07:30pm E 4-5 kts 21.0°c 1017.1 hPa 62% 0.0mm
28/07:00pm E 5 kts 21.9°c 1016.6 hPa 55% 0.0mm
28/06:30pm E 7-8 kts 23.7°c 1016.5 hPa 46% 0.0mm
28/06:00pm E 7-9 kts 25.0°c 1016.4 hPa 41% 0.0mm
28/05:30pm ESE 9-13 kts 25.8°c 1016.3 hPa 37% 0.0mm
28/05:00pm SE 7-10 kts 25.6°c 1016.2 hPa 47% 0.0mm
28/04:30pm SE 8-11 kts 26.2°c 1016.1 hPa 45% 0.0mm
28/04:00pm SE 8-10 kts 25.9°c 1015.9 hPa 49% 0.0mm
28/03:30pm SE 7-10 kts 25.6°c 1015.9 hPa 57% 0.0mm
28/03:00pm SE 9-12 kts 25.6°c 1016.2 hPa 54% 0.0mm
28/02:30pm SE 8-11 kts 25.4°c 1016.2 hPa 57% 0.0mm
28/02:00pm SSE 10-14 kts 25.0°c 1016.4 hPa 57% 0.0mm
28/01:30pm SSE 9-13 kts 25.3°c 1016.8 hPa 55% 0.0mm
28/01:00pm SE 11-16 kts 25.6°c 1017.3 hPa 52% 0.0mm
28/12:30pm SE 11-14 kts 25.4°c 1017.8 hPa 55% 0.0mm
28/12:00pm SE 10-18 kts 24.8°c 1018.1 hPa 57% 0.0mm
28/11:30am SE 9-15 kts 25.0°c 1018.5 hPa 56% 0.0mm
28/11:00am SE 9-12 kts 24.9°c 1018.6 hPa 58% 0.0mm
28/10:30am SE 10-15 kts 25.1°c 1018.9 hPa 53% 0.0mm
28/10:00am SE 8-13 kts 24.6°c 1019.0 hPa 55% 0.0mm
28/09:30am SE 8-11 kts 23.9°c 1018.9 hPa 58% 0.0mm
28/09:00am SE 7-11 kts 22.9°c 1018.6 hPa 63% 0.0mm
28/08:30am SE 6-9 kts 21.9°c 1018.3 hPa 66% 0.0mm
28/08:00am SE 6-8 kts 20.9°c 1017.9 hPa 72% 0.0mm
28/07:30am SE 6-7 kts 19.3°c 1017.4 hPa 80% 0.0mm
28/07:00am SE 6-7 kts 18.6°c 1017.0 hPa 83% 0.0mm
28/06:30am SSE 5-7 kts 18.3°c 1016.5 hPa 84% 0.0mm
28/06:00am SSE 5-6 kts 18.0°c 1016.0 hPa 89% 0.0mm
28/05:30am SSE 4-6 kts 18.1°c 1015.9 hPa 93% 0.0mm
28/05:00am SSE 4-5 kts 18.3°c 1015.7 hPa 95% 0.0mm
28/04:30am SSE 5-6 kts 18.0°c 1015.6 hPa 95% 0.0mm
28/04:00am SSE 5-6 kts 17.8°c 1015.4 hPa 95% 0.0mm
28/03:30am SSE 5-8 kts 16.8°c 1015.3 hPa 95% 0.0mm
28/03:00am E 4-5 kts 16.1°c 1015.4 hPa 91% 0.0mm
28/02:30am E 4-5 kts 16.1°c 1015.6 hPa 89% 0.0mm
28/02:00am E 5 kts 16.2°c 1015.4 hPa 90% 0.0mm
28/01:30am E 3-4 kts 16.2°c 1015.8 hPa 88% 0.0mm
28/01:00am E 4-5 kts 16.4°c 1016.0 hPa 88% 0.0mm
28/12:30am E 4-5 kts 16.6°c 1016.1 hPa 88% 0.0mm
28/12:00am ENE 5 kts 16.9°c 1016.4 hPa 87% 0.0mm
Time Wind Speed Temp Pressure Rel. Hum Rain
27/11:30pm ENE 3-4 kts 17.4°c 1016.7 hPa 86% 0.0mm
27/11:00pm ENE 4 kts 17.7°c 1016.9 hPa 84% 0.0mm
27/10:30pm ENE 4-5 kts 17.6°c 1017.2 hPa 84% 0.0mm
27/10:00pm ENE 4-5 kts 17.8°c 1017.3 hPa 84% 0.0mm
27/09:30pm ENE 4-5 kts 17.6°c 1017.4 hPa 84% 0.0mm
27/09:00pm ENE 4 kts 18.1°c 1017.4 hPa 81% 0.0mm
27/08:30pm ENE 4-5 kts 18.4°c 1017.1 hPa 79% 0.0mm
27/08:00pm E 4-5 kts 19.4°c 1016.8 hPa 74% 0.0mm
27/07:30pm E 5-6 kts 20.2°c 1016.5 hPa 70% 0.0mm
27/07:00pm ESE 5-6 kts 21.0°c 1016.6 hPa 67% 0.0mm
27/06:30pm ESE 5-7 kts 21.7°c 1016.3 hPa 64% 0.0mm
27/06:00pm ESE 7-9 kts 22.7°c 1015.8 hPa 59% 0.0mm
27/05:30pm SE 7-11 kts 23.7°c 1015.4 hPa 52% 0.0mm
27/05:00pm SE 10-13 kts 24.1°c 1015.2 hPa 42% 0.0mm
27/04:30pm SE 11-15 kts 24.6°c 1015.2 hPa 39% 0.0mm
27/04:00pm SE 11-15 kts 24.9°c 1015.3 hPa 40% 0.0mm
27/03:30pm SE 11-15 kts 25.0°c 1015.4 hPa 40% 0.0mm
27/03:00pm SE 11-17 kts 24.7°c 1015.4 hPa 39% 0.0mm
27/02:30pm SE 11-18 kts 24.0°c 1015.7 hPa 42% 0.0mm
27/02:00pm SE 11-17 kts 23.5°c 1016.2 hPa 48% 0.0mm
27/01:30pm SE 11-16 kts 23.0°c 1016.7 hPa 54% 0.0mm
27/01:00pm SSE 10-16 kts 22.7°c 1017.3 hPa 56% 0.0mm
27/12:30pm SE 11-15 kts 22.8°c 1017.9 hPa 59% 0.0mm
27/12:00pm SSE 9-15 kts 22.1°c 1018.4 hPa 57% 0.0mm
27/11:30am SSE 9-15 kts 21.7°c 1018.7 hPa 57% 0.0mm
27/11:00am SSE 9-13 kts 22.2°c 1018.9 hPa 57% 0.0mm
27/10:30am SSE 9-14 kts 21.6°c 1019.2 hPa 58% 0.0mm
27/10:00am SSE 9-13 kts 21.7°c 1019.3 hPa 59% 0.0mm
27/09:30am SSE 9-12 kts 21.2°c 1019.3 hPa 60% 0.0mm
27/09:00am SSE 8-11 kts 20.8°c 1019.0 hPa 62% 0.0mm
27/08:30am SE 6-8 kts 19.8°c 1018.8 hPa 68% 0.0mm
27/08:00am SSE 6-8 kts 18.3°c 1018.3 hPa 72% 0.0mm
27/07:30am S 6-7 kts 16.7°c 1018.0 hPa 81% 0.0mm
27/07:00am SSE 5-6 kts 15.8°c 1017.5 hPa 82% 0.0mm
27/06:30am SSE 4-6 kts 16.0°c 1017.0 hPa 79% 0.0mm
27/06:00am SSE 5-8 kts 16.0°c 1016.5 hPa 77% 0.0mm
27/05:30am SSE 5-7 kts 16.1°c 1016.3 hPa 76% 0.0mm
27/05:00am SSE 5-8 kts 16.1°c 1016.0 hPa 75% 0.0mm
27/04:30am SSE 5-8 kts 16.3°c 1015.9 hPa 75% 0.0mm
27/04:00am SSE 6-8 kts 16.3°c 1015.8 hPa 77% 0.0mm
27/03:30am S 3-5 kts 15.9°c 1015.9 hPa 79% 0.0mm
27/03:00am SSW 3-5 kts 15.8°c 1016.0 hPa 85% 0.0mm
27/02:30am SSW 4-6 kts 15.6°c 1016.2 hPa 91% 0.0mm
27/02:00am SSW 4-5 kts 15.0°c 1016.4 hPa 95% 0.0mm
27/01:30am SSW 4-5 kts 12.7°c 1016.6 hPa 88% 0.0mm
27/01:00am CALM 0 kts 12.6°c 1016.8 hPa 88% 0.0mm
27/12:30am CALM 0 kts 12.5°c 1017.1 hPa 86% 0.0mm
27/12:00am SSW 3-4 kts 13.5°c 1017.3 hPa 82% 0.0mm